カタログに戻る

GALILEO 15 (267)

運用中ナビゲーションMEO
NORAD 41859·PAYLOAD·🇪🇺 EU

打ち上げ Nov 17, 2016 から Guiana Space Centre

Loading…

次のパス (今後24時間)

TLE

最新Source: CelesTrak SupGP

元期: Sep 13, 2026, 23:59 UTC

1 41859C 16069A   26256.99979167  .00000000  00000+0  00000+0 0  2561
2 41859  55.5553  98.6267 0002832   0.1257  57.1027  1.70474048    13

AllMySatでGALILEO 15 (267)をリアルタイム追跡

Download on the App Store